Regional Weather Roundup
Issued by NWS Midland/Odessa, TX

Skip options and go directly to product.
Home | Oldest Version | Previous Version | Current Version | All | Graphics & Text | Save Text | Print | Product List | Glossary On

Skip product version selection by date and time.   
151
ASUS44 KMAF 221510
RWRMAF
MIDLAND AREA WEATHER ROUNDUP
NATIONAL WEATHER SERVICE MIDLAND TX
900 AM CST SAT NOV 22 2014

...IN SOUTHWEST TEXAS AND SOUTHEAST NEW MEXICO...

CITY           SKY/WX    TMP DP  RH WIND       PRES   REMARKS
ALPINE         CLOUDY    49  45  86 CALM      30.06R
ANDREWS        TSTM      56  54  93 CALM      29.98F
ARTESIA        NOT AVBL
BIG SPRING     PTSUNNY   61  59  91 E6        29.96F
CARLSBAD       MOSUNNY   52  39  61 W9        29.99R
DRYDEN           N/A     60  60 100 CALM      29.92R
FORT STOCKTON  CLOUDY    53  49  86 SW9       29.96S
GUAD PASS      CLOUDY    49  37  63 W8        30.07R
HOBBS          CLOUDY    52  52 100 N6        29.99F FOG
MARFA          CLOUDY    46  39  76 NW3       30.03R
MIDLAND AIRPK  TSTM      58  56  91 W9        29.96S
MIDLAND INTL   CLOUDY    57  55  93 W10       29.95S FOG
ODESSA         PTSUNNY   56  53  90 N7        29.97S FOG
PECOS          CLOUDY    54  52  94 SW8       29.97R FOG
PRESIDIO       FAIR      54  48  80 MISG      29.98R
SEMINOLE       PTSUNNY   54  52  93 NW6       30.00S
SNYDER         CLOUDY    58  58  97 SE9       29.97S THUNDER
WINK           CLOUDY    57  52  83 SE3       29.94F
$$
...OTHER STATIONS IN TEXAS...

CITY           SKY/WX    TMP DP  RH WIND       PRES   REMARKS
ABILENE        PTSUNNY   66  60  81 S16       29.97R
AMARILLO       SUNNY     49  43  80 SW15      29.95F
AUSTIN         TSTM      65  63  93 SE16G22   30.00F
BROWNSVILLE    LGT RAIN  74  70  87 SE17G26   29.92R
CORPUS CHRISTI PTSUNNY   73  69  87 SE17      29.93F
DALLAS FTW     DRZL/FOG  56  56 100 SE17      30.02F VSB 3/4
DEL RIO        CLOUDY    67  65  93 SE13      29.90S
EL PASO        PTSUNNY   54  41  61 NW7       30.04R
HOUSTON INT    CLOUDY    62  59  90 E10       30.06F
LUBBOCK        PTSUNNY   49  44  83 CALM      29.99S
SAN ANGELO     CLOUDY    66  61  84 SE12      29.93F
SAN ANTONIO    LGT RAIN  67  65  93 SE14      29.96F FOG
WACO           CLOUDY    64  60  87 SE14      30.04F
WICHITA FALLS  NOT AVBL
$$
...OTHER LOCATIONS IN NEW MEXICO...

CITY           SKY/WX    TMP DP  RH WIND       PRES   REMARKS
ALAMAGORDO     MOSUNNY   45  25  45 CALM      30.06R
ALBUQUERQUE    MOSUNNY   32  19  58 CALM      30.10S
CANNON AFB     SUNNY     47  32  57 W10       29.99S
CLOVIS         MOSUNNY   45  43  93 SW8       29.98S
HOLLOMAN AFB   MOSUNNY   39  26  58 W1        30.05R
ROSWELL        PTSUNNY   46  29  51 E7        30.03R
RUIDOSO        SUNNY     41  23  48 CALM      30.11S
SANTA FE       SUNNY     31  21  66 N10       30.08S WCI  22
TRUTH OR CONSE SUNNY     42  22  44 CALM      30.09R
TUCUMCARI      SUNNY     42  25  50 W8        29.96F WCI  37
$$

USA.gov is the U.S. government's official web portal to all federal, state and local government web resources and services.